Home > Time Zones > World Clock > Weather > India > Surat > Past weeks

Flag for India Weather past 2 weeks in Surat, Gujarat, India

Now
84 °F

Passing clouds.


Feels Like: 91 °F
Forecast: 81 / 88 °F
Wind: 5 mph from Southwest

Location: Ahmadabad Airport

Current Time: Jul 12, 2014 at 8:12:12 AM

Latest Report: Jul 12, 2014 at 5:40 AM


Visibility: 2 mi

Pressure: 29.56 "Hg

Humidity: 70%

Dew point: 73 °F

Location of SuratLocation

Historic Weather in Surat — Graph

°F

Surat temperature yesterday

Maximum temperature yesterday: 102 °F (at 2:40 PM)
Minimum temperature yesterday: 84 °F (at 3:40 AM)
Average temperature yesterday: 90 °F

Past Weeks' High & Low Weather Summary

 TemperatureHumidityPressure
High106 °F (Jun 27, 4:40 PM)79% (Jul 11, 3:40 AM)29.80 "Hg (Jul 11, 3:40 AM)
Low84 °F (Jun 27, 6:40 AM)28% (Jun 27, 5:40 PM)29.50 "Hg (Jul 3, 6:40 PM)
Average93 °F53%29.63 "Hg
* Reported Jun 27 6:40 AM — Jul 12 5:40 AM, Surat, Weather by CustomWeather, © 2014

Note: Actual official high and low records may vary slightly from our data, if they occured in-between our weather recording intervals... More about our weather records

Advertising

Surat weather history for previous 24 hours

 ConditionsComfort  
Time TempWeatherWind HumidityBarometerVisibility
5:40 AM
Jul 12
84 °FPassing clouds.5 mph70%29.56 "Hg2 mi
4:40 AM84 °FHaze.6 mph70%29.56 "Hg2 mi
3:40 AM86 °FHaze.7 mph70%29.56 "Hg2 mi
2:40 AM86 °FHaze.7 mph66%29.56 "Hg2 mi
1:40 AM86 °FHaze.10 mph66%29.56 "Hg2 mi
12:40 AM88 °FHaze.12 mph66%29.59 "Hg2 mi
11:40 PM
Jul 11
88 °FHaze.13 mph66%29.59 "Hg2 mi
10:40 PM90 °FPassing clouds.14 mph63%29.56 "Hg2 mi
8:40 PM93 °FPassing clouds.10 mph56%29.53 "Hg2 mi
7:40 PM95 °FScattered clouds.14 mph53%29.53 "Hg2 mi
2:40 PM102 °FScattered clouds.7 mph37%29.53 "Hg4 mi
1:40 PM100 °FScattered clouds.6 mph42%29.56 "Hg4 mi
12:40 PM100 °FScattered clouds.3 mph42%29.56 "Hg4 mi
10:40 AM95 °FScattered clouds.2 mph50%29.62 "Hg3 mi
9:40 AM91 °FSmoke.3 mph59%29.62 "Hg2 mi
8:40 AM90 °FHaze.8 mph63%29.62 "Hg2 mi
Weather by CustomWeather, © 2014

See weather overviewHow to use our weather pages